PD3EM Weather Reports


time (UTC)temp
F
wind
direction
speed
knots
gust
knots
rain 1hr
in
rain 24hr
in
rain mn
in
humidity
%
barometer
mb
20260506232557 50 303 0.9 1.7 0.00 0.00 0.00 79 1014.5
20260506231556 51 297 0.9 1.7 0.00 0.00 0.00 79 1014.3
20260506230555 51 336 1.7 1.7 0.00 0.00 0.00 78 1014.5
20260506225633 51 0.0 0.0 0.00 0.00 0.00 78 1014.4
20260506224552 51 0.0 0.9 0.00 0.00 0.00 77 1014.3
20260506223631 51 330 1.7 3.5 0.00 0.00 0.00 77 1014.5
20260506222550 51 0.0 1.7 0.00 0.00 0.00 77 1014.4
20260506221548 52 0.0 0.9 0.00 0.00 0.00 78 1014.3
20260506220547 52 11 1.7 2.6 0.00 0.00 0.00 79 1014.2
20260506215546 52 0.0 1.7 0.00 0.00 0.00 80 1014.2
20260506214625 52 337 2.6 3.5 0.00 0.00 0.00 80 1014.0
20260506213545 52 338 0.9 0.9 0.00 0.00 0.00 80 1014.0
20260506212542 52 0.0 2.6 0.00 0.00 0.00 80 1014.1
20260506211541 52 0.0 0.9 0.00 0.00 0.00 79 1013.7
20260506210540 52 7 1.7 2.6 0.00 0.00 0.00 78 1013.8
20260506205539 52 0.0 1.7 0.00 0.00 0.00 77 1013.8
20260506204617 52 355 1.7 1.7 0.00 0.00 0.00 76 1013.6
20260506203616 52 334 1.7 1.7 0.00 0.00 0.00 75 1013.9
20260506202535 52 351 0.9 1.7 0.00 0.00 0.00 75 1013.6
20260506201534 52 0.0 0.9 0.00 0.00 0.00 75 1013.6
20260506200533 53 324 1.7 1.7 0.00 0.00 0.00 74 1013.5
20260506195531 53 316 0.9 1.7 0.00 0.00 0.00 72 1013.5
20260506194530 54 0.0 0.0 0.00 0.00 0.00 70 1013.6
20260506193529 54 322 1.7 1.7 0.00 0.00 0.00 70 1013.4
20260506192528 54 0.0 0.9 0.00 0.00 0.00 71 1013.3
20260506191527 54 110 1.7 1.7 0.00 0.00 0.00 71 1013.2
20260506190525 54 0.0 0.0 0.00 0.00 0.00 70 1013.0
20260506185604 54 0.0 0.0 0.00 0.00 0.00 70 1013.0
20260506184523 54 0.0 0.0 0.00 0.00 0.00 70 1012.9
20260506183521 54 0.0 0.0 0.00 0.00 0.00 70 1012.7
20260506182600 54 0.0 0.0 0.00 0.00 0.00 70 1012.4
20260506181519 55 0.0 0.9 0.00 0.00 0.00 69 1012.3
20260506180558 55 0.0 0.0 0.00 0.00 0.00 68 1012.2
20260506175516 55 0.0 0.0 0.00 0.00 0.00 68 1012.3
20260506174515 55 127 2.6 2.6 0.00 0.00 0.00 68 1012.2
20260506173554 55 198 0.9 2.6 0.00 0.00 0.00 67 1012.0
20260506172513 56 0.0 0.0 0.00 0.00 0.00 67 1011.9
20260506171511 56 143 0.9 0.9 0.00 0.00 0.00 67 1012.0
20260506170510 56 0.0 0.0 0.00 0.00 0.00 66 1011.8
20260506165549 56 85 2.6 3.5 0.00 0.00 0.00 66 1011.9
20260506164508 56 0.0 0.9 0.00 0.00 0.00 65 1011.9
20260506163507 56 0.0 0.9 0.00 0.00 0.00 65 1011.9
20260506162505 56 151 1.7 2.6 0.00 0.00 0.00 65 1011.9
20260506161544 56 101 1.7 1.7 0.00 0.00 0.00 64 1011.9
20260506160503 56 106 3.5 5.2 0.00 0.00 0.00 64 1011.7
20260506155502 57 17 2.6 3.5 0.00 0.00 0.00 63 1011.9
20260506154500 56 324 1.7 1.7 0.00 0.00 0.00 63 1011.7
20260506153459 56 0.0 0.9 0.00 0.00 0.00 63 1011.7
20260506152458 56 0.0 0.9 0.00 0.00 0.00 64 1011.7
20260506151457 56 0.0 0.9 0.00 0.00 0.00 64 1011.7
20260506150455 56 307 0.9 0.9 0.00 0.00 0.00 63 1011.8
20260506145454 56 0.0 0.9 0.00 0.00 0.00 63 1011.6
20260506144453 57 0.0 1.7 0.00 0.00 0.00 63 1011.9
20260506143451 56 44 1.7 2.6 0.00 0.00 0.00 63 1011.5
20260506142450 56 116 3.5 3.5 0.00 0.00 0.00 62 1011.8
20260506141449 56 0.0 3.5 0.00 0.00 0.00 60 1011.7
20260506140448 57 176 1.7 2.6 0.00 0.00 0.00 59 1011.7
20260506135447 58 9 1.7 3.5 0.00 0.00 0.00 59 1011.6
20260506134526 58 0 0.9 1.7 0.00 0.00 0.00 60 1011.5
20260506133445 58 305 1.7 2.6 0.00 0.00 0.00 58 1011.4
20260506132443 59 82 3.5 7.0 0.00 0.00 0.00 57 1011.5
20260506131442 59 329 2.6 3.5 0.00 0.00 0.00 59 1011.2
20260506130441 58 77 0.9 1.7 0.00 0.00 0.00 63 1011.2
20260506125439 58 336 3.5 3.5 0.00 0.00 0.00 63 1011.1
20260506124458 57 71 1.7 3.5 0.00 0.00 0.00 64 1011.2
20260506123517 56 339 3.5 3.5 0.00 0.00 0.00 69 1011.1
20260506122516 56 323 3.5 5.2 0.00 0.00 0.00 69 1010.8
20260506121434 56 346 1.7 2.6 0.00 0.00 0.00 71 1010.9
20260506120433 56 334 4.3 4.3 0.00 0.00 0.00 71 1010.9
20260506115432 56 344 0.9 4.3 0.00 0.00 0.00 73 1010.9
20260506114431 56 326 3.5 4.3 0.00 0.00 0.00 73 1010.9
20260506113429 56 351 3.5 5.2 0.00 0.00 0.00 73 1010.9
20260506112428 56 354 5.2 6.1 0.00 0.00 0.00 73 1010.9
20260506111427 56 297 1.7 2.6 0.00 0.00 0.00 71 1010.8
20260506110426 57 308 5.2 5.2 0.00 0.00 0.00 69 1011.0
20260506105425 58 343 5.2 7.8 0.00 0.00 0.00 67 1010.9
20260506104424 60 23 2.6 3.5 0.00 0.00 0.00 57 1010.7
20260506103422 60 277 1.7 2.6 0.00 0.00 0.00 58 1010.6
20260506102421 59 314 3.5 3.5 0.00 0.00 0.00 61 1010.5
20260506101420 59 349 2.6 2.6 0.00 0.00 0.00 60 1010.8
20260506100419 60 353 0.9 1.7 0.00 0.00 0.00 62 1010.5
20260506095417 61 0.0 5.2 0.00 0.00 0.00 61 1010.6
20260506094456 60 25 1.7 3.5 0.00 0.00 0.00 65 1010.5
20260506093415 59 168 0.9 3.5 0.00 0.00 0.00 63 1010.6
20260506092414 59 0.0 3.5 0.00 0.00 0.00 65 1010.5
20260506091413 60 338 1.7 1.7 0.00 0.00 0.00 65 1010.2
20260506090411 60 106 3.5 5.2 0.00 0.00 0.00 67 1010.3
20260506085410 59 25 1.7 1.7 0.00 0.00 0.00 66 1010.4
20260506084409 58 307 0.9 2.6 0.00 0.00 0.00 70 1010.3
20260506083407 57 101 1.7 2.6 0.00 0.00 0.00 71 1010.3
20260506082406 57 354 2.6 4.3 0.00 0.00 0.00 73 1010.2
20260506081445 56 314 1.7 3.5 0.00 0.00 0.00 74 1010.2
20260506080404 56 355 5.2 6.1 0.00 0.00 0.00 80 1010.1
20260506073500 54 347 3.5 6.1 0.00 0.00 0.00 86 1010.0
20260506072459 53 348 4.3 6.1 0.00 0.00 0.00 86 1010.0
20260506071458 53 349 7.8 8.7 0.00 0.00 0.00 86 1010.0
20260506070537 53 351 4.3 7.0 0.00 0.00 0.00 87 1009.8
20260506061451 52 340 5.2 7.8 0.00 0.00 0.00 88 1009.5
20260506060449 52 235 1.7 3.5 0.00 0.00 0.00 88 1009.5
20260506050442 50 0.0 3.5 0.00 0.00 0.00 89 1009.7
20260506044439 49 344 2.6 2.6 0.00 0.00 0.00 88 1009.7
20260506043438 49 344 5.2 5.2 0.00 0.00 0.00 88 1009.8
20260506042437 49 332 3.5 4.3 0.00 0.00 0.00 88 1009.7
20260506041436 49 302 1.7 5.2 0.00 0.00 0.00 88 1009.8
20260506040435 49 307 2.6 2.6 0.00 0.00 0.00 88 1009.9
20260506035514 49 19 3.5 4.3 0.00 0.00 0.00 88 1010.0
20260506034512 49 348 1.7 3.5 0.00 0.00 0.00 87 1009.9
20260506033431 49 278 1.7 1.7 0.00 0.00 0.00 87 1010.0
20260506032430 49 357 2.6 4.3 0.00 0.00 0.00 86 1010.1
20260506031428 50 358 1.7 2.6 0.00 0.00 0.00 86 1010.2
20260506030427 50 268 1.7 3.5 0.00 0.00 0.00 85 1010.1
20260506025426 50 0.0 0.9 0.00 0.00 0.00 85 1010.2
20260506024425 50 0.0 2.6 0.00 0.00 0.00 85 1010.3
20260506023423 50 263 0.9 3.5 0.00 0.00 0.00 84 1010.4
20260506022422 50 259 0.9 1.7 0.00 0.00 0.00 84 1010.3
20260506021501 50 348 2.6 3.5 0.00 0.00 0.00 84 1010.1
20260506020420 50 339 0.9 2.6 0.00 0.00 0.00 85 1010.3
20260506015419 50 14 2.6 5.2 0.00 0.00 0.00 86 1010.2
20260506014417 49 0.0 1.7 0.00 0.00 0.00 87 1010.2
20260506013416 49 0.0 0.0 0.00 0.00 0.00 87 1010.2
20260506012415 49 349 0.9 0.9 0.00 0.00 0.00 87 1010.4
20260506011414 49 334 0.9 1.7 0.00 0.00 0.00 87 1010.2
20260506010413 49 307 3.5 4.3 0.00 0.00 0.00 86 1010.4
20260506005411 49 301 2.6 4.3 0.00 0.00 0.00 86 1010.5
20260506004450 49 349 2.6 3.5 0.00 0.00 0.00 86 1010.8
20260506003409 49 350 3.5 3.5 0.00 0.00 0.00 85 1010.8
20260506002408 49 0.0 1.7 0.00 0.00 0.00 85 1010.7
20260506001406 49 332 2.6 2.6 0.00 0.00 0.00 85 1010.8
20260506000405 49 346 6.1 6.1 0.00 0.00 0.00 84 1010.9
20260505235444 49 354 0.9 3.5 0.00 0.00 0.00 84 1010.9
20260505234403 50 346 1.7 4.3 0.00 0.00 0.00 83 1010.9
20260505233402 50 336 1.7 2.6 0.00 0.00 0.00 83 1011.1